ISAT (43879 NORAD) Tracking and Keplerian Element Data

This shows tracking and keplerian element data for the satellite.

Feedback or suggestion? Click here.




ElementValue
Catalog43879
NameISAT
Epoch Orbit2720
Epoch Day191.53087085
Epoch Year2019
RAAN99.2223
Inclination97.7167
Eccentricity0.0012316
Argument of Perigee316.5736
Mean Anonmoly43.4515
Mean Motion14.95995592
Decay Rate-7.6E-07
L11 43879U 18111D 19191.53087085 -.00000076 00000-0 -16372-5 0 9999
L22 43879 97.7167 99.2223 0012316 316.5736 43.4515 14.95995592 27202

Live tracking and technical data element details for ISAT (NORAD 43879). ISAT can be tracked NOW for your location showing map with azimuth and elevation plus other details from your city location.

Track the satellite on the map from your city or location and see movement details for azimuth, elevation, latitude, longitude, range, height, and movement on the map or in text.







IsCatalogInMostPopularTable: catalog: 43879, numindb: 145
Update: records affected: 1



GetName: 43879 ISAT

Hit Count: updated at: Tue, 16 Jul 2019 21:04:39 GMT